Voltar ao catálogo

CZ-6A DEB

AtivoPO
NORAD 61119·DEBRIS·🇨🇳 China

Lançado Aug 6, 2024 de Taiyuan Satellite Launch Center

Loading…

Próximas Passagens (próximas 24 horas)

TLE

AtualizadoSource: Space-Track

Época: Sep 12, 2026, 23:44 UTC

1 61119U 24140PM  26255.98894812  .00027485  00000-0  20759-2 0  9999
2 61119  89.0235 260.1602 0041867 221.6624 138.1420 15.01569486111358

Acompanhe CZ-6A DEB em tempo real com AllMySat

Download on the App Store